Location: Favalello
(42.2939°N, 9.2706°E)
Time: 18:32:59
(UTC+00:00)

Cosmos 1703 Rocket - Pass Details

Date: 06 December 2019
Orbit: 604 x 635 km, 82.5° (Epoch: 25 January)

Event Time Altitude Azimuth Distance (km) Brightness Sun altitude
Rises 17:16:42 0° 165° (SSE) 2,900 7.0 -15.4°
Reaches altitude 10° 17:19:03 10° 157° (SSE) 2,002 6.1 -15.8°
Maximum altitude 17:23:06 36° 91° (E) 1,011 4.1 -16.6°
Enters shadow 17:24:20 30° 57° (ENE) 1,141 4.4 -16.8°
